Weather History for Burns, OR

Change the Weather History Date:

Saturday, January 25, 2014

  Actual Average Record
Temperature  
Mean Temperature 24 °F 26 °F  
Max Temperature 45 °F 35 °F 52 °F (1975)
Min Temperature 3 °F 16 °F -16 °F (1949)
Degree Days  
Heating Degree Days 41 40  
Month to date heating degree days 884 1011  
Since 1 July heating degree days 4217 4278  
Cooling Degree Days 0 0  
Month to date cooling degree days 0 0  
Year to date cooling degree days 0 0  
Moisture  
Dew Point 9 °F    
Average Humidity 65    
Maximum Humidity 96    
Minimum Humidity 33    
Precipitation  
Precipitation 0.00 in 0.03 in 0.33 in (1969)
Month to date precipitation 0.20 0.98  
Year to date precipitation 0.20 0.98  
Sea Level Pressure  
Sea Level Pressure 30.50 in    
Wind  
Wind Speed 2 mph (SW)    
Max Wind Speed 8 mph    
Max Gust Speed 10 mph    
Visibility 8 miles    
Events      
T = Trace of Precipitation, MM = Missing Value Source: NWS Daily Summary

Daily Weather History Graph

Daily Weather History Graph

Search for Another Location

Airport:

Trip Planner

Search our weather history database for the weather conditions in past years. The results will help you decide how hot, cold, wet, or windy it might be!

Date:

Astronomy

Jan. 25, 2014 Rise Set
Actual Time 7:19 AM PST 4:57 PM PST
Civil Twilight 6:48 AM PST 5:28 PM PST
Nautical Twilight 6:13 AM PST 6:03 PM PST
Astronomical Twilight 5:39 AM PST 6:37 PM PST
Moon 1:55 AM PST (1/25) 12:02 PM PST (1/25)
Length of Visible Light 10h 40m
Length of Day
9h 38m
Waning Crescent, 33% of the Moon is Illuminated
Jan 25
Waning Crescent
Jan 30
New
Feb 6
First Quarter
Feb 14
Full
Feb 22
Last Quarter

Hourly Weather History & Observations

Time (PST) Temp. Windchill Dew Point Humidity Pressure Visibility Wind Dir Wind Speed Gust Speed Precip Events Conditions
12:53 AM 5.0 °F -2.1 °F 1.9 °F 87% 30.58 in 10.0 mi West 3.5 mph - N/A   Clear
1:53 AM 6.1 °F -4.3 °F 3.0 °F 87% 30.58 in 10.0 mi WSW 5.8 mph - N/A   Clear
2:53 AM 7.0 °F -1.7 °F 3.9 °F 87% 30.57 in 10.0 mi SW 4.6 mph - N/A   Clear
3:53 AM 5.0 °F - 1.9 °F 87% 30.58 in 10.0 mi Calm Calm - N/A   Clear
4:53 AM 5.0 °F - 1.9 °F 87% 30.58 in 10.0 mi Calm Calm - N/A   Clear
5:53 AM 5.0 °F - 1.0 °F 84% 30.61 in 10.0 mi Calm Calm - N/A   Clear
6:09 AM 3.9 °F - 1.0 °F 88% 30.43 in 2.5 mi Calm Calm - N/A   Scattered Clouds
6:13 AM 5.0 °F - 1.0 °F 84% 30.43 in 1.8 mi Calm Calm - N/A   Mostly Cloudy
6:20 AM 3.0 °F - -0.0 °F 87% 30.43 in 3.0 mi Calm Calm - N/A   Mostly Cloudy
6:43 AM 5.0 °F - 1.0 °F 84% 30.44 in 1.5 mi Calm Calm - N/A   Overcast
6:47 AM 5.0 °F - 1.4 °F 85% 30.44 in 0.8 mi Calm Calm - N/A   Mist
6:53 AM 5.0 °F - 3.9 °F 95% 30.63 in 0.8 mi Calm Calm - N/A   Mist
7:06 AM 5.0 °F - 1.9 °F 87% 30.45 in 1.5 mi Calm Calm - N/A   Overcast
7:09 AM 3.9 °F - 1.0 °F 88% 30.45 in 3.0 mi Calm Calm - N/A   Overcast
7:53 AM 6.1 °F - 3.0 °F 87% 30.63 in 10.0 mi Calm Calm - N/A   Overcast
8:04 AM 9.0 °F - 6.1 °F 88% 30.45 in 1.8 mi Calm Calm - N/A   Overcast
8:08 AM 10.0 °F - 8.1 °F 92% 30.45 in 0.8 mi Calm Calm - N/A   Mist
8:36 AM 12.9 °F - 12.0 °F 96% 30.45 in 1.5 mi Calm Calm - N/A   Mostly Cloudy
8:39 AM 12.9 °F - 12.0 °F 96% 30.45 in 3.0 mi Calm Calm - N/A   Mostly Cloudy
8:50 AM 15.8 °F - 12.2 °F 86% 30.45 in 10.0 mi Calm Calm - N/A   Scattered Clouds
8:53 AM 15.1 °F - 12.9 °F 91% 30.62 in 10.0 mi Calm Calm - N/A   Partly Cloudy
9:53 AM 21.9 °F 17.2 °F 18.0 °F 85% 30.60 in 10.0 mi ESE 3.5 mph - N/A   Clear
10:53 AM 27.0 °F - 19.0 °F 72% 30.58 in 10.0 mi Calm Calm - N/A   Clear
11:53 AM 33.1 °F - 19.0 °F 56% 30.53 in 10.0 mi Calm Calm - N/A   Clear
12:53 PM 37.0 °F 33.3 °F 19.0 °F 48% 30.50 in 10.0 mi South 4.6 mph - N/A   Clear
1:53 PM 41.0 °F 39.0 °F 18.0 °F 40% 30.46 in 10.0 mi ESE 3.5 mph - N/A   Clear
2:53 PM 44.1 °F - 18.0 °F 35% 30.44 in 10.0 mi Calm Calm - N/A   Clear
3:53 PM 44.1 °F - 18.0 °F 35% 30.43 in 10.0 mi Calm Calm - N/A   Clear
4:53 PM 37.9 °F 35.5 °F 16.0 °F 41% 30.44 in 10.0 mi South 3.5 mph - N/A   Clear
5:53 PM 27.0 °F 20.5 °F 15.1 °F 61% 30.47 in 10.0 mi SSE 5.8 mph - N/A   Clear
6:53 PM 21.9 °F 15.7 °F 12.9 °F 68% 30.48 in 10.0 mi North 4.6 mph - N/A   Clear
7:53 PM 19.0 °F 13.9 °F 12.0 °F 74% 30.48 in 10.0 mi North 3.5 mph - N/A   Clear
8:53 PM 17.1 °F 10.0 °F 12.9 °F 84% 30.45 in 10.0 mi West 4.6 mph - N/A   Clear
9:53 PM 15.1 °F 9.4 °F 10.9 °F 84% 30.43 in 10.0 mi South 3.5 mph - N/A   Clear
10:53 PM 14.0 °F 6.5 °F 10.0 °F 84% 30.41 in 10.0 mi NNW 4.6 mph - N/A   Clear
11:53 PM 12.0 °F 5.9 °F 9.0 °F 88% 30.39 in 8.0 mi SW 3.5 mph - N/A   Clear